Location: Marse
(42.1502°N, 110.9866°W)
Time: 02:33:22
(UTC+00:00)

Envisat - Visible Passes

Search period start: 19 January 2022 00:00
Search period end: 29 January 2022 00:00
Orbit: 764 x 766 km, 98.2° (Epoch: 18 January)

Date Brightness Start Highest point End Pass type
(mag) Time Alt. Az. Time Alt. Az. Time Alt. Az.
19 Jan 3.5 12:03:17 10° NNE 12:08:19 58° E 12:13:18 10° S visible
19 Jan 4.3 13:43:26 10° NNW 13:46:52 18° WNW 13:50:16 10° WSW visible
20 Jan 6.2 01:00:48 10° WSW 01:02:44 12° W 01:04:40 10° WNW visible
20 Jan 4.9 11:27:01 10° NE 11:31:15 26° E 11:35:28 10° SSE visible
20 Jan 3.4 13:05:40 10° N 13:10:20 38° WNW 13:14:59 10° SW visible
21 Jan 5.9 10:52:18 10° ENE 10:53:59 12° E 10:55:40 10° ESE visible
21 Jan 2.8 12:28:30 10° N 12:33:37 82° WNW 12:38:41 10° SSW visible
21 Jan 4.8 14:10:26 10° NW 14:11:47 11° WNW 14:13:06 10° WNW visible
22 Jan 4.0 11:51:48 10° NNE 11:56:41 45° E 12:01:32 10° S visible
22 Jan 4.0 13:31:29 10° NNW 13:35:23 23° WNW 13:39:18 10° WSW visible
23 Jan 5.3 11:15:47 10° NE 11:19:34 21° E 11:23:19 10° SE visible
23 Jan 3.1 12:53:56 10° N 12:58:49 47° WNW 13:03:39 10° SW visible
24 Jan 3.0 12:16:55 10° NNE 12:22:01 79° ESE 12:27:06 10° S visible
24 Jan 4.6 13:57:50 10° NNW 14:00:21 14° WNW 14:02:53 10° W visible
25 Jan 4.4 11:40:23 10° NNE 11:45:02 35° E 11:49:40 10° SSE visible
25 Jan 3.8 13:19:37 10° N 13:23:54 28° WNW 13:28:11 10° SW visible
26 Jan 5.6 11:04:44 10° NE 11:07:51 16° E 11:10:58 10° SE visible
26 Jan 2.9 12:42:15 10° N 12:47:16 60° WNW 12:52:15 10° SSW visible
27 Jan 3.4 12:05:22 10° NNE 12:10:25 62° E 12:15:26 10° S visible
27 Jan 4.4 13:45:40 10° NNW 13:48:54 17° WNW 13:52:09 10° WSW visible
28 Jan 6.4 01:03:27 10° WSW 01:04:52 11° W 01:06:17 10° WNW visible
28 Jan 4.8 11:29:01 10° NE 11:33:22 28° E 11:37:42 10° SSE visible
28 Jan 3.5 13:07:48 10° N 13:12:24 35° WNW 13:16:59 10° SW visible
